sat.trackr.live / text

‹ back to catalog

STARLINK-31584

NORAD 59862 · 2024-098E

PAYLOAD ACTIVE UNKNOWN

§ Identity

Operator
Country
US
Launch date
2024-05-24
Launch site
AFETR
Launch vehicle
Mass (kg)
RCS (m²)

Purposes: comms

External: N2YO · Heavens-Above · Gunter

§ Orbital elements

Epoch: 2026-05-24T21:39:52.183584Z

Period
94.27 min
Inclination
43.0034°
Eccentricity
0.0001654
Mean motion
15.27576656 rev/d
Perigee alt
481.9 km
Apogee alt
484.2 km
Semi-major
6,861.2 km
B*
3.5468e-5
RAAN
207.4472°
Arg perigee
274.2223°
Mean anomaly
85.8440°
Rev number
11,350

§ Raw data

STARLINK-315841 59862U 24098E   26144.90268731  .00000714  00000+0  35468-4 0  99972 59862  43.0034 207.4472 0001654 274.2223  85.8440 15.27576656113509

JSON: /api/v1/satellites/59862 · /tle

For live sub-satellite position, see the globe view (requires WebGL).

§ Visibility from observer

Set your observer location to see the next 7 days of passes ≥ 10°. The values pass through the URL so the page stays shareable.

No JS? Fill the form by hand. The geolocation button needs JavaScript.